DMSP 5D-2 F13 DEB, 42265

Orbit data source: Space-Track

DMSP 5D-2 F13 DEB, 42265 is space debris in SSO originally from a launch on Fri, 24 Mar 1995 UTC launched from the Air Force Western Test Range (AFWTR). Debris objects in space refer to the collection of defunct objects orbiting the Earth. Examples of debris include non-operational satellites, rocket bodies, and fragments generated from explosions, collisions, or faulty payload assembly.

Loading next visibility...
DMSP 5D-2 F13 DEB details
Identifier
42265, 1995-015GF
Orbit
SSO
Last TLE update3 days ago
Origin
Flag of USUSAF SMC (US)
ManufacturerUnknown
MissionSpacecraft
Bus & MotorUnknown
MassUnknown
Launch date (UTC)
1995-03-24 (30 years ago)
Launch vehicleUnknown
Launch site
Air Force Western Test Range (AFWTR)
Object type
Payload
Rocket body
Debris
Shape & HBRUnknown
Radar Cross SectionSmall (<0.1 m²)

Expand to show TLE details & history

TLE from 3 days ago
0 DMSP 5D-2 F13 DEB
1 42265U 95015GF  24358.53060024  .00008982  00000-0  33454-2 0  9999
2 42265  98.7210  21.6895 0005379 171.3702 188.7575 14.32215313471013
Epoch: 2024-12-23T12:44Z
Definitive object data (Epoch: 2024-12-23T12:44:03.86Z)
Latitude
Longitude98.12169°
Altitude791.075 km
Speed7.456 km/s
True Right ascension01h 26m 45s
True Declination0° 00' 00"
Sunlit
Object was in daylight at TLE epoch
Visualization TLE readout
Latitude42.10802°
Longitude-70.9754°
Altitude786.808 km
Speed7.466 km/s
Apparent Right ascension18h 16m 59s
Apparent Declination10° 11' 02"
Sunlit
Object is in daylight
Visualization observer readout
Local Sidereal Time11:08:59
Azimuth71.208° E
Elevation-6.159°
Doppler factor1
Orbital elements
Apogee altitude785.329 km
Perigee altitude777.627 km
Semi-major axis7,159.615 km
Eccentricity0.0005379
Inclination98.721°
RAAN21.6895°
Arg. of periapsis171.3702°
True anomaly188.74812°
Mean anomaly188.7575°
Eccentric anomaly188.75281°
Mean motion3.58269 °/min
BSTAR0.0033454
Orbital period100.48 mins
Loading maneuver chart data...

DMSP 5D-2 F13 DEB Visibility forecast

Observer location: undefined°, undefined

Span
Click to sort rows by Start time (UTC) header in descending order
Start Az.
Max El. time (UTC)
Max El. Az.
Max El.
End time (UTC)
End Az.
5 mins2024-12-26 13:26:34.904Z57.006° ENE2024-12-26 13:29:34.904Z95.099° ESE15.956°2024-12-26 13:31:34.904Z121.155° SE
8 mins2024-12-26 15:05:34.904Z359.259° N2024-12-26 15:08:34.904Z309.732° NW38.798°2024-12-26 15:13:34.904Z212.414° SW
6 mins2024-12-27 00:43:34.904Z107.676° ESE2024-12-27 00:46:34.904Z61.832° ENE22.666°2024-12-27 00:49:34.904Z19.561° NNE
7 mins2024-12-27 02:22:34.904Z205.076° SW2024-12-27 02:25:34.904Z264.424° W32.378°2024-12-27 02:29:34.904Z326.957° NNW
|